Probability
0 0 0 0 0 0 0 0 0 0 0 0 0 0 0 0 0 0 0 0 0 0 0 0 0 0 0 0 0 0 0 0 0 0 0 0 0 0 0 0 0 0 0
0 0 0 0 0 0 0 0 0 0 0 0 0 0 0 0 0 0 0 0 0 0 0 0 0 0 0 0 0 0 0 0 0 0 0 0 0 0 0 0 0 0 0
0 0 0 0 0 0 0 0 0 0 0 0 0 0 0 0 0 0 0 0 0 0 0 0 0 0 0 0 0 0 0 0 0 0 0 0 0 0 0 0 0 0 0
0 0 0 0 0 0 0 0 0 0 0 0 0 0 0 0 0 0 0 0 0 0 0 0 0 0 0 0 0 0 0 0 0 0 0 0 0 0 0 0 0 0 0
0 0 0 0 0 0 0 0 0 0 0 0 0 0 0 0 0 0 0 0 0 0 0 0 0 0 0 0 0 0 0 0 0 0 0 0 0 0 0 0 0 0 0
0 0 0 0 0 0 0 0 0 0 0 0 0 0 0 0 0 0 0 0 0 0 0 0 0 0 0 0 0 0 0 0 0 0 0 0 0 0 0 0 0 0 0
0 0 0 0 0 0 0 0 0 0 0 0 0 0 0 0 0 0 0 0 0 0 0 0 0 0 0 0 0 0 0 0 0 0 0 0 0 0 0 0 0 0 0
0 0 0 0 0 0 0 0 0 0 0 0 0 0 0 0 0 0 0 0 0 0 0 0 0 0 0 0 0 0 0 0 0 0 0 0 0 0 0 0 0 0 0
0 0 0 0 0 0 0 0 0 0 0 0 0 0 0 0 0 0 0 0 0 0 0 0 0 0 0 0 0 0 0 0 0 0 0 0 0 0 0 0 0 0 0
0 0 0 0 0 0 0 0 0 0 0 0 0 0 0 0 0 0 0 0 0 0 0 0 0 0 0 0 0 0 0 0 0 0 0 0 0 0 0 0 0 0 0
0 0 0 0 0 0 0 0 0 0 0 0 0 0 0 0 0 0 0 0 0 0 0 0 0 0 0 0 0 0 0 0 0 0 0 0 0 0 0 0 0 0 0
0 0 0 0 0 0 0 0 0 0 0 0 0 0 0 0 0 0 0 0 0 0 0 0 0 0 0 0 0 0 0 0 0 0 0 0 0 0 0 0 0 0 0
0 0 0 0 0 0 0 0 0 0 0 0 0 0 0 0 0 0 0 0 0 0 0 0 0 0 0 0 0 0 0 0 0 0 0 0 0 0 0 0 0 0 0
0 0 0 0 0 0 0 0 0 0 0 0 0 0 0 0 0 0 0 0 0 0 0 0 0 0 0 0 0 0 0 0 0 0 0 0 0 0 0 0 0 0 0
0 0 0 0 0 0 0 0 0 0 0 0 0 0 0 0 0 0 0 0 0 0 0 0 0 0 0 0 0 0 0 0 0 0 0 0 0 0 0 0 0 0 0
0 0 0 0 0 0 0 0 0 0 0 0 0 0 0 0 0 0 0 0 0 0 0 0 0 0 0 0 0 0 0 0 0 0 0 0 0 0 0 0 0 0 0
0 0 0 0 0 0 0 0 0 0 0 0 0 0 0 0 0 0 0 0 0 0 0 0 0 0 0 0 0 0 0 0 0 0 0 0 0 0 0 0 0 0 0
0 0 0 0 0 0 0 0 0 0 0 0 0 0 0 0 0 0 0 0 0 0 0 0 0 0 0 0 0 0 0 0 0 0 0 0 0 0 0 0 0 0 0
0 0 0 0 0 0 0 0 0 0 0 0 0 0 0 0 0 0 0 0 0 0 0 0 0 0 0 0 0 0 0 0 0 0 0 0 0 0 0 0 0 0 0
0 0 0 0 0 0 0 0 0 0 0 0 0 0 0 0 0 0 0 0 0 0 0 0 0 0 0 0 0 0 0 0 0 0 0 0 0 0 0 0 0 0 0
0 0 0 0 0 0 0 0 0 0 0 0 0 0 0 0 0 0 0 0 0 0 0 0 0 0 0 0 0 0 0 0 0 0 0 0 0 0 0 0 0 0 0
0 0 0 0 0 0 0 0 0 0 0 0 0 0 0 0 0 0 0 0 0 0 0 0 0 0 0 0 0 0 0 0 0 0 0 0 0 0 0 0 0 0 0
0 0 0 0 0 0 0 0 0 0 0 0 0 0 0 0 0 0 0 0 0 0 0 0 0 0 0 0 0 0 0 0 0 0 0 0 0 0 0 0 0 0 0
0 0 0 0 0 0 0 0 0 0 0 0 0 0 0 0 0 0 0 0 0 0 0 0 0 0 0 0 0 0 0 0 0 0 0 0 0 0 0 0 0 0 0
0 0 0 0 0 0 0 0 0 0 0 0 0 0 0 0 0 0 0 0 0 0 0 0 0 0 0 0 0 0 0 0 0 0 0 0 0 0 0 0 0 0 0
0 0 0 0 0 0 0 0 0 0 0 0 0 0 0 0 0 0 0 0 0 0 0 0 0 0 0 0 0 0 0 0 0 0 0 0 0 0 0 0 0 0 0
Wind_Speed
4 5 6 5 4 4 3 3 2 2 3 3 3 4 4 4 4 3 4 4 3 4 4 4 4 4 3 3 2 2 2 1 3 4 3 3 3 3 2 3 3 3 2
2 3 5 5 5 4 4 3 3 4 5 5 5 5 5 5 5 5 5 4 4 5 5 6 6 4 5 4 3 3 2 2 3 5 3 3 4 3 3 4 3 3 2
2 4 5 5 4 4 4 4 5 5 6 6 6 5 5 5 5 6 5 6 7 7 6 6 5 5 5 4 4 4 3 3 2 2 3 2 3 2 1 2 2 2 2
2 4 5 5 4 4 4 5 5 5 6 5 5 5 5 5 6 6 6 7 7 7 6 6 6 5 4 4 4 4 4 4 3 2 2 2 3 3 2 1 2 2 1
1 2 3 3 3 4 4 5 5 5 5 5 5 5 5 5 5 5 6 6 6 6 7 6 6 7 6 4 3 3 4 4 4 4 3 3 4 4 3 2 2 2 2
2 1 2 3 3 4 4 5 6 6 5 5 5 5 6 5 8 10 8 8 7 7 7 7 6 9 9 9 8 7 6 5 5 4 4 5 5 5 5 4 2 1 2
3 3 3 4 4 4 5 6 6 5 4 4 4 4 5 6 10 12 12 8 7 7 7 7 7 8 10 8 8 9 9 9 7 2 4 4 5 5 6 5 4 2 1
3 3 4 4 5 5 6 6 5 4 4 3 3 4 5 6 10 11 10 7 7 7 7 7 7 8 9 8 7 9 9 9 8 5 4 4 4 5 4 3 3 3 3
3 4 4 5 5 5 5 5 4 4 4 4 4 5 6 5 6 7 7 5 6 7 7 7 8 8 12 11 9 9 9 8 8 8 8 9 11 12 9 5 6 5 4
4 4 4 4 5 5 5 4 3 4 6 6 6 6 7 6 7 7 6 5 5 4 5 6 10 9 10 10 7 7 8 6 6 8 9 10 10 11 13 9 6 5 3
4 4 4 4 4 4 4 3 5 6 7 7 8 7 7 8 10 11 8 5 4 4 4 4 5 9 9 9 7 5 5 4 4 5 6 7 7 7 9 8 6 4 4
5 5 5 4 3 4 5 5 5 7 8 7 7 7 5 5 7 9 11 8 5 4 3 3 3 6 7 8 7 7 9 7 5 5 6 6 6 7 6 6 6 5 4
5 5 4 4 4 4 5 6 6 5 6 5 5 5 3 3 4 8 9 9 8 4 2 4 5 7 6 6 9 9 7 6 5 5 6 5 5 5 6 5 6 5 5
6 5 4 4 4 3 4 5 6 6 6 6 5 5 4 2 2 3 3 4 5 4 3 4 6 8 7 6 6 6 6 5 4 4 4 4 5 5 6 5 5 6 5
6 6 5 4 4 4 3 2 4 4 6 7 5 5 5 3 2 4 3 3 2 3 2 3 4 4 5 5 5 5 5 5 5 3 4 4 5 5 5 5 4 4 5
7 6 5 4 4 4 5 5 6 4 7 8 8 6 3 4 6 4 4 3 3 2 3 3 3 3 4 3 3 3 4 4 4 4 4 4 4 4 4 4 4 4 4
8 8 6 6 6 6 5 6 5 5 6 6 8 7 5 5 4 3 2 3 2 3 3 2 2 2 2 1 1 2 2 3 3 4 4 4 4 4 4 5 5 5 5
9 10 9 6 6 6 6 5 6 6 5 2 3 5 4 4 3 1 1 2 2 2 2 2 2 2 2 1 0 0 1 2 3 3 4 4 4 4 4 5 5 7 6
9 7 7 6 6 6 6 5 5 6 5 4 2 2 4 3 2 2 4 2 2 3 3 3 3 3 3 2 1 1 1 1 2 2 3 4 4 4 4 5 5 6 6
8 12 10 7 6 6 6 6 6 6 6 5 5 5 3 3 2 3 3 3 3 4 4 5 4 4 3 3 2 2 2 1 1 1 2 2 3 3 4 5 5 6 6
9 10 13 8 7 7 7 7 7 7 7 7 7 7 8 6 6 5 4 5 5 6 6 6 5 5 4 3 3 3 4 3 2 1 1 1 2 3 3 3 4 4 5
9 9 9 9 8 8 7 8 8 8 9 10 8 7 9 7 7 7 7 7 7 7 6 6 6 5 5 5 5 4 4 4 4 3 2 1 2 2 3 3 4 4 4
10 10 9 9 8 9 8 7 7 8 9 9 9 7 7 8 9 8 9 8 7 7 6 6 7 6 5 5 5 5 5 5 4 3 3 2 2 2 3 3 4 5 5
12 12 11 10 9 8 8 8 8 9 9 9 8 8 8 9 9 10 9 8 8 7 6 7 8 10 10 7 5 5 5 4 4 4 4 3 1 1 2 3 4 5 5
13 12 12 11 10 10 9 9 9 9 9 9 9 9 9 9 9 10 9 8 9 9 9 8 7 8 10 10 8 6 5 6 5 4 4 3 2 1 2 3 3 5 5
14 14 12 11 11 10 10 10 10 10 10 10 9 9 9 10 10 10 8 8 8 8 8 7 9 10 9 8 9 7 6 7 7 6 4 3 3 1 2 2 4 4 5
Wind_Direction
175 165 158 160 152 140 122 96 73 55 48 46 32 20 4 349 343 348 345 350 16 32 34 38 32 23 21 16 16 1 342 306 277 284 267 272 275 267 216 213 221 215 207
165 151 150 147 141 127 106 87 68 64 60 55 48 38 21 7 1 1 358 14 36 42 37 37 30 34 36 22 21 13 349 316 282 297 303 305 287 278 236 217 214 211 205
139 143 148 149 139 126 112 95 85 77 68 59 53 42 24 12 12 20 37 48 51 49 40 34 20 22 26 16 17 11 352 334 308 300 305 302 304 317 264 217 213 206 205
150 158 164 163 151 136 119 105 97 87 78 66 55 43 28 24 30 41 53 56 54 46 36 28 16 10 2 359 6 3 353 353 351 344 319 318 315 314 298 253 224 203 204
121 162 173 163 143 128 116 109 101 91 83 74 62 46 35 35 37 57 60 58 51 41 31 25 25 32 26 20 12 360 0 4 5 8 359 357 357 350 339 314 242 188 193
99 106 130 135 130 121 115 113 106 97 88 77 63 57 49 44 63 72 77 67 55 43 28 14 23 29 21 28 32 35 31 19 11 15 13 11 359 347 333 325 300 189 196
91 94 104 113 108 102 109 112 112 107 99 88 72 71 67 60 82 83 81 77 62 44 31 23 25 18 17 13 18 33 35 33 31 19 26 11 349 331 334 348 354 352 28
114 113 115 114 109 107 110 114 115 112 108 93 77 81 83 79 101 99 91 80 68 50 39 31 31 22 14 8 25 36 35 32 26 29 23 359 339 331 331 330 333 357 40
150 141 136 130 124 120 120 123 123 121 106 88 76 78 85 75 95 106 95 82 70 53 39 35 36 33 15 25 37 34 33 27 26 43 49 41 32 26 18 22 21 28 25
176 158 145 140 137 135 132 124 116 116 110 101 82 70 77 72 70 83 97 90 75 54 36 30 30 29 25 33 39 36 29 5 4 25 30 27 28 28 29 28 17 24 17
153 137 133 135 140 138 127 119 123 118 110 102 92 76 71 75 72 75 83 89 92 71 47 23 11 15 31 37 42 39 11 348 14 32 34 29 25 24 24 21 17 17 13
139 135 131 132 139 136 127 122 125 125 118 113 103 89 71 69 75 75 74 75 80 74 44 1 351 18 40 41 37 30 28 29 30 33 33 25 21 14 2 2 10 21 29
141 142 136 124 115 129 137 137 133 133 131 128 121 115 104 87 82 79 74 65 59 57 13 11 26 37 48 48 39 39 39 40 37 34 24 9 353 342 345 352 5 10 22
153 151 143 134 124 122 136 149 151 153 147 144 142 137 131 116 97 84 73 59 42 32 12 13 38 48 52 46 39 37 41 44 46 33 9 353 350 357 4 3 5 7 10
158 154 149 146 141 129 116 128 158 164 166 160 162 157 150 140 126 105 91 55 24 2 10 40 47 49 52 49 46 40 38 40 40 29 21 13 7 7 4 352 355 7 19
162 161 158 151 144 138 127 96 63 118 150 156 160 155 149 145 131 102 73 40 17 43 83 77 73 71 72 64 56 45 37 33 27 22 22 16 8 3 0 0 1 6 8
170 167 162 158 154 154 152 142 127 86 106 141 160 165 155 142 125 93 45 29 51 113 104 116 121 116 105 87 61 45 27 10 5 16 18 11 3 1 2 2 1 358 359
171 172 168 168 165 164 165 161 156 155 157 163 190 201 190 163 141 116 110 105 92 111 157 167 175 178 181 182 179 10 3 4 13 15 13 9 6 2 4 2 3 1 354
174 173 173 171 171 171 169 167 170 172 174 175 182 218 211 185 167 157 151 168 183 187 195 202 205 205 209 211 221 253 300 345 7 11 14 12 9 6 4 0 359 0 359
181 185 177 176 176 175 176 179 183 188 192 196 205 211 177 160 196 188 175 192 203 209 210 215 217 215 213 213 218 228 240 249 283 351 6 8 10 12 5 359 360 357 353
182 188 187 183 186 186 186 192 194 196 202 211 221 217 190 201 222 221 208 206 214 219 221 224 226 221 215 211 216 224 231 238 239 248 288 340 356 359 353 352 354 356 354
182 185 188 192 193 193 194 196 196 201 208 215 226 225 207 215 230 230 226 223 222 224 225 226 230 227 220 216 213 216 224 231 230 230 246 282 320 342 344 345 348 347 350
185 187 190 196 199 198 197 195 196 202 210 215 219 216 208 215 226 229 231 229 223 222 221 219 227 232 226 219 215 215 224 230 226 216 227 254 292 329 340 340 339 337 340
192 194 196 199 201 200 201 201 202 206 210 213 214 214 214 216 222 227 230 228 223 221 216 214 221 227 226 218 213 215 223 225 209 202 206 219 248 302 324 332 335 334 329
197 199 201 201 201 203 204 206 207 209 211 213 214 216 219 220 225 230 230 225 222 221 218 214 218 222 223 219 214 211 203 194 185 176 176 187 203 247 314 332 337 336 333
202 205 206 206 205 204 205 207 210 212 215 217 217 218 220 223 228 231 227 222 220 220 217 214 214 213 209 207 209 201 185 180 175 171 172 182 196 227 301 323 334 335 335